Weather History for CYXY - February, 2015

Change the Weather History Date:

Wednesday, February 4, 2015

  Actual Average Record
Temperature  
Mean Temperature -18 °F -  
Max Temperature -9 °F 19 °F 41 °F (2003)
Min Temperature -27 °F 0 °F -27 °F (2015)
Degree Days  
Heating Degree Days 83    
Moisture  
Dew Point -28 °F    
Average Humidity 68    
Maximum Humidity 77    
Minimum Humidity 49    
Precipitation  
Precipitation 0.00 in 0.02 in - ()
Sea Level Pressure  
Sea Level Pressure 30.34 in    
Wind  
Wind Speed 3 mph ()    
Max Wind Speed 8 mph    
Max Gust Speed -    
Visibility 14.6 miles    
Events Fog    
Averages and records for this station are not official NWS values.
T = Trace of Precipitation, MM = Missing Value Source: Averaged Metar Reports

Daily Weather History Graph

Daily Weather History Graph

Search for Another Location

Airport or City:

Trip Planner

Search our weather history database for the weather conditions in past years. The results will help you decide how hot, cold, wet, or windy it might be!

Date:

Astronomy

Feb. 04, 2015 Rise Set
Actual Time 9:10 AM PST 5:18 PM PST
Civil Twilight 8:22 AM PST 6:06 PM PST
Nautical Twilight 7:31 AM PST 6:58 PM PST
Astronomical Twilight 6:42 AM PST 7:47 PM PST
Moon 6:55 PM PST (2/4) 8:53 AM PST (2/4)
Length of Visible Light 9h 43m
Length of Day
8h 08m
Full, 99% of the Moon is Illuminated
Feb 4
Full
Feb 11
Last Quarter
Feb 18
New
Feb 25
First Quarter
Mar 5
Full

Hourly Weather History & Observations

Time (PST) Temp. Windchill Dew Point Humidity Pressure Visibility Wind Dir Wind Speed Gust Speed Precip Events Conditions
12:00 AM -25.6 °F -41.9 °F -32.8 °F 69% 30.31 in 15.0 mi South 5.8 mph - N/A   Clear
1:00 AM -23.8 °F - -31.0 °F 69% 30.31 in 15.0 mi Calm Calm - N/A   Clear
2:00 AM -25.6 °F - -32.8 °F 69% 30.34 in 15.0 mi Calm Calm - N/A   Clear
3:00 AM -25.6 °F - -32.8 °F 69% 30.34 in 15.0 mi Variable 2.3 mph - N/A   Clear
4:00 AM -25 °F - -32 °F 51% 30.32 in 15 mi SSE 3.5 mph - -  
4:00 AM -25.6 °F - -32.8 °F 69% 30.32 in 15.0 mi Variable 2.3 mph - N/A   Clear
5:00 AM -27.4 °F - -34.6 °F 69% 30.33 in 15.0 mi Variable 2.3 mph - N/A   Clear
6:00 AM -27.4 °F - -34.6 °F 69% 30.33 in 15.0 mi SE 2.3 mph - N/A Fog Scattered Clouds
7:00 AM -27.4 °F - -34.6 °F 69% 30.35 in 15.0 mi Calm Calm - N/A Fog Scattered Clouds
8:00 AM -27.4 °F - -34.6 °F 69% 30.36 in 15.0 mi Calm Calm - N/A Fog Partly Cloudy
9:00 AM -27.4 °F - -34.6 °F 69% 30.36 in 7.0 mi Calm Calm - N/A Fog Partly Cloudy
10:00 AM -26 °F - -34 °F 49% 30.37 in 15 mi West 3.5 mph - -  
10:00 AM -25.6 °F -37.1 °F -34.6 °F 63% 30.37 in 15.0 mi WNW 3.5 mph - N/A Fog Partly Cloudy
11:00 AM -22.0 °F -35.6 °F -29.2 °F 69% 30.38 in 40.0 mi NW 4.6 mph - N/A   Partly Cloudy
12:00 PM -20.2 °F -33.5 °F -27.4 °F 69% 30.38 in 40.0 mi North 4.6 mph - N/A   Partly Cloudy
1:00 PM -14.8 °F -27.2 °F -22.0 °F 70% 30.36 in 40.0 mi North 4.6 mph - N/A   Partly Cloudy
2:00 PM -13.0 °F -27.0 °F -20.2 °F 70% 30.35 in 40.0 mi North 5.8 mph - N/A   Clear
3:00 PM -11.2 °F -23.0 °F -16.6 °F 77% 30.33 in 40.0 mi North 4.6 mph - N/A   Clear
4:00 PM -10 °F - -16 °F 62% 30.32 in 37 mi NNW 5.8 mph - -  
4:00 PM -9.4 °F -25.6 °F -16.6 °F 71% 30.32 in 40.0 mi NNW 8.1 mph - N/A   Clear
5:00 PM -11.2 °F -24.8 °F -16.6 °F 77% 30.32 in 40.0 mi NNW 5.8 mph - N/A   Clear
6:00 PM -14.8 °F - -22.0 °F 70% 30.32 in 40.0 mi NNW 2.3 mph - N/A   Clear
7:00 PM -18.4 °F -33.4 °F -23.8 °F 76% 30.34 in 15.0 mi WNW 5.8 mph - N/A   Clear
8:00 PM -16.6 °F -29.3 °F -23.8 °F 70% 30.33 in 15.0 mi North 4.6 mph - N/A   Clear
9:00 PM -18.4 °F -28.9 °F -23.8 °F 76% 30.33 in 15.0 mi NNW 3.5 mph - N/A   Mostly Cloudy
10:00 PM -20 °F - -27 °F 56% 30.34 in 15 mi NW 2.3 mph - -  
10:00 PM -20.2 °F - -27.4 °F 69% 30.34 in 15.0 mi Variable 2.3 mph - N/A   Partly Cloudy
11:00 PM -20.2 °F - -27.4 °F 69% 30.33 in 15.0 mi Calm Calm - N/A   Clear